Time,TemperatureF,DewpointF,PressureIn,WindDirection,WindDirectionDegrees,WindSpeedMPH,WindSpeedGustMPH,Humidity,HourlyPrecipIn,Conditions,Clouds,dailyrainin,SolarRadiationWatts/m^2,SoftwareType,DateUTC
2013-02-21 00:11:00,25.0,25.0,-100.00,SSW,206,2.0,4.0,100,0.00,,,0.01,0.000000,,2013-02-21 09:11:00,
2013-02-21 00:22:00,25.0,25.0,-100.00,SSW,206,2.0,4.0,100,0.00,,,0.01,0.000000,,2013-02-21 09:22:00,
2013-02-21 00:31:00,25.0,25.0,-100.00,SSW,206,2.0,4.0,100,0.00,,,0.01,0.000000,,2013-02-21 09:31:00,
2013-02-21 00:41:00,25.0,25.0,-100.00,SSW,206,2.0,4.0,100,0.00,,,0.01,0.000000,,2013-02-21 09:41:00,
2013-02-21 00:51:00,25.0,25.0,-100.00,SSW,206,2.0,4.0,100,0.00,,,0.01,0.000000,,2013-02-21 09:51:00,
2013-02-21 01:11:00,26.0,26.0,-100.00,SW,235,1.0,3.0,100,0.00,,,0.01,0.000000,,2013-02-21 10:11:00,
2013-02-21 01:21:00,26.0,26.0,-100.00,SW,235,1.0,3.0,100,0.00,,,0.01,0.000000,,2013-02-21 10:21:00,
2013-02-21 01:31:00,26.0,26.0,-100.00,SW,235,1.0,3.0,100,0.00,,,0.01,0.000000,,2013-02-21 10:31:00,
2013-02-21 01:41:00,26.0,26.0,-100.00,SW,235,1.0,3.0,100,0.00,,,0.01,0.000000,,2013-02-21 10:41:00,
2013-02-21 01:51:00,26.0,26.0,-100.00,SW,235,1.0,3.0,100,0.00,,,0.01,0.000000,,2013-02-21 10:51:00,
2013-02-21 02:11:00,26.0,26.0,-100.00,South,186,1.0,4.0,100,0.00,,,0.01,0.000000,,2013-02-21 11:11:00,
2013-02-21 02:21:00,26.0,26.0,-100.00,South,186,1.0,4.0,100,0.00,,,0.01,0.000000,,2013-02-21 11:21:00,
2013-02-21 02:31:00,26.0,26.0,-100.00,South,186,1.0,4.0,100,0.00,,,0.01,0.000000,,2013-02-21 11:31:00,
2013-02-21 02:41:00,26.0,26.0,-100.00,South,186,1.0,4.0,100,0.00,,,0.01,0.000000,,2013-02-21 11:41:00,
2013-02-21 02:51:00,26.0,26.0,-100.00,South,186,1.0,4.0,100,0.00,,,0.01,0.000000,,2013-02-21 11:51:00,
2013-02-21 03:11:00,26.0,26.0,-100.00,South,176,2.0,6.0,100,0.00,,,0.01,0.000000,,2013-02-21 12:11:00,
2013-02-21 03:21:00,26.0,26.0,-100.00,South,176,2.0,6.0,100,0.00,,,0.01,0.000000,,2013-02-21 12:21:00,
2013-02-21 03:32:00,26.0,26.0,-100.00,South,176,2.0,6.0,100,0.00,,,0.01,0.000000,,2013-02-21 12:32:00,
2013-02-21 03:42:00,26.0,26.0,-100.00,South,176,2.0,6.0,100,0.00,,,0.01,0.000000,,2013-02-21 12:42:00,
2013-02-21 03:52:00,26.0,26.0,-100.00,South,176,2.0,6.0,100,0.00,,,0.01,0.000000,,2013-02-21 12:52:00,
2013-02-21 04:12:00,24.0,24.0,-100.00,SW,215,2.0,6.0,100,0.00,,,0.01,0.000000,,2013-02-21 13:12:00,
2013-02-21 04:22:00,24.0,24.0,-100.00,SW,215,2.0,6.0,100,0.00,,,0.01,0.000000,,2013-02-21 13:22:00,
2013-02-21 04:32:00,24.0,24.0,-100.00,SW,215,2.0,6.0,100,0.00,,,0.01,0.000000,,2013-02-21 13:32:00,
2013-02-21 04:41:00,24.0,24.0,-100.00,SW,215,2.0,6.0,100,0.00,,,0.01,0.000000,,2013-02-21 13:41:00,
2013-02-21 04:51:00,24.0,24.0,-100.00,SW,215,2.0,6.0,100,0.00,,,0.01,0.000000,,2013-02-21 13:51:00,
2013-02-21 05:21:00,25.0,25.0,-100.00,WNW,299,0.0,4.0,100,0.00,,,0.01,0.000000,,2013-02-21 14:21:00,
2013-02-21 05:32:00,25.0,25.0,-100.00,WNW,299,0.0,4.0,100,0.00,,,0.01,0.000000,,2013-02-21 14:32:00,
2013-02-21 05:41:00,25.0,25.0,-100.00,WNW,299,0.0,4.0,100,0.00,,,0.01,0.000000,,2013-02-21 14:41:00,
2013-02-21 05:52:00,25.0,25.0,-100.00,WNW,299,0.0,4.0,100,0.00,,,0.01,0.000000,,2013-02-21 14:52:00,
2013-02-21 06:21:00,22.0,22.0,-100.00,WNW,303,2.0,3.0,100,0.00,,,0.01,0.000000,,2013-02-21 15:21:00,
2013-02-21 06:31:00,22.0,22.0,-100.00,WNW,303,2.0,3.0,100,0.00,,,0.01,0.000000,,2013-02-21 15:31:00,
2013-02-21 06:42:00,22.0,22.0,-100.00,WNW,303,2.0,3.0,100,0.00,,,0.01,0.000000,,2013-02-21 15:42:00,
2013-02-21 06:51:00,22.0,22.0,-100.00,WNW,303,2.0,3.0,100,0.00,,,0.01,0.000000,,2013-02-21 15:51:00,
2013-02-21 07:12:00,23.0,23.0,-100.00,WNW,296,3.0,6.0,100,0.00,,,0.01,0.000000,,2013-02-21 16:12:00,
2013-02-21 07:21:00,23.0,23.0,-100.00,WNW,296,3.0,6.0,100,0.00,,,0.01,0.000000,,2013-02-21 16:21:00,
2013-02-21 07:31:00,23.0,23.0,-100.00,WNW,296,3.0,6.0,100,0.00,,,0.01,0.000000,,2013-02-21 16:31:00,
2013-02-21 07:42:00,23.0,23.0,-100.00,WNW,296,3.0,6.0,100,0.00,,,0.01,0.000000,,2013-02-21 16:42:00,
2013-02-21 07:51:00,23.0,23.0,-100.00,WNW,296,3.0,6.0,100,0.00,,,0.01,0.000000,,2013-02-21 16:51:00,
2013-02-21 08:21:00,24.0,24.0,-100.00,WNW,303,2.0,4.0,100,0.00,,,0.01,0.000000,,2013-02-21 17:21:00,
2013-02-21 08:32:00,24.0,24.0,-100.00,WNW,303,2.0,4.0,100,0.00,,,0.01,0.000000,,2013-02-21 17:32:00,
2013-02-21 08:42:00,24.0,24.0,-100.00,WNW,303,2.0,4.0,100,0.00,,,0.01,0.000000,,2013-02-21 17:42:00,
2013-02-21 08:52:00,24.0,24.0,-100.00,WNW,303,2.0,4.0,100,0.00,,,0.01,0.000000,,2013-02-21 17:52:00,
2013-02-21 09:11:00,24.0,24.0,-100.00,NNW,347,1.0,3.0,100,0.00,,,0.01,2.000000,,2013-02-21 18:11:00,
2013-02-21 09:22:00,24.0,24.0,-100.00,NNW,347,1.0,3.0,100,0.00,,,0.01,2.000000,,2013-02-21 18:22:00,
2013-02-21 09:31:00,24.0,24.0,-100.00,NNW,347,1.0,3.0,100,0.00,,,0.01,2.000000,,2013-02-21 18:31:00,
2013-02-21 09:42:00,24.0,24.0,-100.00,NNW,347,1.0,3.0,100,0.00,,,0.01,2.000000,,2013-02-21 18:42:00,
2013-02-21 09:51:00,24.0,24.0,-100.00,NNW,347,1.0,3.0,100,0.00,,,0.01,2.000000,,2013-02-21 18:51:00,
2013-02-21 10:11:00,25.0,25.0,-100.00,NNE,28,1.0,5.0,100,0.00,,,0.01,17.000000,,2013-02-21 19:11:00,
2013-02-21 10:21:00,25.0,25.0,-100.00,NNE,28,1.0,5.0,100,0.00,,,0.01,17.000000,,2013-02-21 19:21:00,
2013-02-21 10:31:00,25.0,25.0,-100.00,NNE,28,1.0,5.0,100,0.00,,,0.01,17.000000,,2013-02-21 19:31:00,
2013-02-21 10:41:00,25.0,25.0,-100.00,NNE,28,1.0,5.0,100,0.00,,,0.01,17.000000,,2013-02-21 19:41:00,
2013-02-21 10:51:00,25.0,25.0,-100.00,NNE,28,1.0,5.0,100,0.00,,,0.01,17.000000,,2013-02-21 19:51:00,
2013-02-21 11:11:00,26.0,23.0,-100.00,SE,126,1.0,4.0,90,0.00,,,-99.99,37.000000,,2013-02-21 20:11:00,
2013-02-21 11:21:00,26.0,23.0,-100.00,SE,126,1.0,4.0,90,0.00,,,-99.99,37.000000,,2013-02-21 20:21:00,
2013-02-21 11:31:00,26.0,23.0,-100.00,SE,126,1.0,4.0,90,0.00,,,-99.99,37.000000,,2013-02-21 20:31:00,
2013-02-21 11:41:00,26.0,23.0,-100.00,SE,126,1.0,4.0,90,0.00,,,-99.99,37.000000,,2013-02-21 20:41:00,
2013-02-21 11:52:00,26.0,23.0,-100.00,SE,126,1.0,4.0,90,0.00,,,-99.99,37.000000,,2013-02-21 20:52:00,
2013-02-21 12:11:00,28.0,25.0,-100.00,ESE,122,1.0,3.0,87,0.00,,,0.01,68.000000,,2013-02-21 21:11:00,
2013-02-21 12:21:00,28.0,25.0,-100.00,ESE,122,1.0,3.0,87,0.00,,,0.01,68.000000,,2013-02-21 21:21:00,
2013-02-21 12:31:00,28.0,25.0,-100.00,ESE,122,1.0,3.0,87,0.00,,,0.01,68.000000,,2013-02-21 21:31:00,
2013-02-21 12:41:00,28.0,25.0,-100.00,ESE,122,1.0,3.0,87,0.00,,,0.01,68.000000,,2013-02-21 21:41:00,
2013-02-21 12:51:00,28.0,25.0,-100.00,ESE,122,1.0,3.0,87,0.00,,,0.01,68.000000,,2013-02-21 21:51:00,
2013-02-21 13:21:00,27.0,24.0,-100.00,SSE,157,0.0,4.0,87,0.00,,,0.01,59.000000,,2013-02-21 22:21:00,
2013-02-21 13:31:00,27.0,24.0,-100.00,SSE,157,0.0,4.0,87,0.00,,,0.01,59.000000,,2013-02-21 22:31:00,
2013-02-21 13:41:00,27.0,24.0,-100.00,SSE,157,0.0,4.0,87,0.00,,,0.01,59.000000,,2013-02-21 22:41:00,
2013-02-21 13:52:00,27.0,24.0,-100.00,SSE,157,0.0,4.0,87,0.00,,,0.01,59.000000,,2013-02-21 22:52:00,
2013-02-21 14:11:00,27.0,23.0,-100.00,SSE,159,2.0,4.0,86,0.00,,,0.01,63.000000,,2013-02-21 23:11:00,
2013-02-21 14:21:00,27.0,23.0,-100.00,SSE,159,2.0,4.0,86,0.00,,,0.01,63.000000,,2013-02-21 23:21:00,
2013-02-21 14:31:00,27.0,23.0,-100.00,SSE,159,2.0,4.0,86,0.00,,,0.01,63.000000,,2013-02-21 23:31:00,
2013-02-21 14:41:00,27.0,23.0,-100.00,SSE,159,2.0,4.0,86,0.00,,,0.01,63.000000,,2013-02-21 23:41:00,
2013-02-21 14:52:00,27.0,23.0,-100.00,SSE,159,2.0,4.0,86,0.00,,,0.01,63.000000,,2013-02-21 23:52:00,
2013-02-21 15:11:00,27.0,24.0,-100.00,SSE,150,2.0,4.0,88,0.00,,,0.01,54.000000,,2013-02-22 00:11:00,
2013-02-21 15:21:00,27.0,24.0,-100.00,SSE,150,2.0,4.0,88,0.00,,,0.01,54.000000,,2013-02-22 00:21:00,
2013-02-21 15:31:00,27.0,24.0,-100.00,SSE,150,2.0,4.0,88,0.00,,,0.01,54.000000,,2013-02-22 00:31:00,
2013-02-21 15:41:00,27.0,24.0,-100.00,SSE,150,2.0,4.0,88,0.00,,,0.01,54.000000,,2013-02-22 00:41:00,
2013-02-21 15:51:00,27.0,24.0,-100.00,SSE,150,2.0,4.0,88,0.00,,,0.01,54.000000,,2013-02-22 00:51:00,
2013-02-21 16:21:00,28.0,25.0,-100.00,SSE,159,2.0,4.0,89,0.00,,,-99.99,48.000000,,2013-02-22 01:21:00,
2013-02-21 16:32:00,28.0,25.0,-100.00,SSE,159,2.0,4.0,89,0.00,,,-99.99,48.000000,,2013-02-22 01:32:00,
2013-02-21 16:42:00,28.0,25.0,-100.00,SSE,159,2.0,4.0,89,0.00,,,-99.99,48.000000,,2013-02-22 01:42:00,
2013-02-21 16:51:00,28.0,25.0,-100.00,SSE,159,2.0,4.0,89,0.00,,,-99.99,48.000000,,2013-02-22 01:51:00,
2013-02-21 17:11:00,28.0,26.0,-100.00,South,179,1.0,4.0,91,0.00,,,0.00,39.000000,,2013-02-22 02:11:00,
2013-02-21 17:21:00,28.0,26.0,-100.00,South,179,1.0,4.0,91,0.00,,,0.00,39.000000,,2013-02-22 02:21:00,
2013-02-21 17:31:00,28.0,26.0,-100.00,South,179,1.0,4.0,91,0.00,,,0.00,39.000000,,2013-02-22 02:31:00,
2013-02-21 17:42:00,28.0,26.0,-100.00,South,179,1.0,4.0,91,0.00,,,0.00,39.000000,,2013-02-22 02:42:00,
2013-02-21 17:52:00,28.0,26.0,-100.00,South,179,1.0,4.0,91,0.00,,,0.00,39.000000,,2013-02-22 02:52:00,
2013-02-21 18:11:00,26.0,25.0,-100.00,SSE,165,1.0,3.0,97,0.00,,,0.00,14.000000,,2013-02-22 03:11:00,
2013-02-21 18:21:00,26.0,25.0,-100.00,SSE,165,1.0,3.0,97,0.00,,,0.00,14.000000,,2013-02-22 03:21:00,
2013-02-21 18:31:00,26.0,25.0,-100.00,SSE,165,1.0,3.0,97,0.00,,,0.00,14.000000,,2013-02-22 03:31:00,
2013-02-21 18:41:00,26.0,25.0,-100.00,SSE,165,1.0,3.0,97,0.00,,,0.00,14.000000,,2013-02-22 03:41:00,
2013-02-21 18:51:00,26.0,25.0,-100.00,SSE,165,1.0,3.0,97,0.00,,,0.00,14.000000,,2013-02-22 03:51:00,
2013-02-21 19:11:00,26.0,26.0,-100.00,SSW,196,0.0,2.0,100,0.00,,,0.00,2.000000,,2013-02-22 04:11:00,
2013-02-21 19:21:00,26.0,26.0,-100.00,SSW,196,0.0,2.0,100,0.00,,,0.00,2.000000,,2013-02-22 04:21:00,
2013-02-21 19:32:00,26.0,26.0,-100.00,SSW,196,0.0,2.0,100,0.00,,,0.00,2.000000,,2013-02-22 04:32:00,
2013-02-21 19:42:00,26.0,26.0,-100.00,SSW,196,0.0,2.0,100,0.00,,,0.00,2.000000,,2013-02-22 04:42:00,
2013-02-21 19:51:00,26.0,26.0,-100.00,SSW,196,0.0,2.0,100,0.00,,,0.00,2.000000,,2013-02-22 04:51:00,
2013-02-21 20:12:00,26.0,26.0,-100.00,SW,222,0.0,3.0,100,0.00,,,0.00,0.000000,,2013-02-22 05:12:00,
2013-02-21 20:22:00,26.0,26.0,-100.00,SW,222,0.0,3.0,100,0.00,,,0.00,0.000000,,2013-02-22 05:22:00,
2013-02-21 20:32:00,26.0,26.0,-100.00,SW,222,0.0,3.0,100,0.00,,,0.00,0.000000,,2013-02-22 05:32:00,
2013-02-21 20:41:00,26.0,26.0,-100.00,SW,222,0.0,3.0,100,0.00,,,0.00,0.000000,,2013-02-22 05:41:00,
2013-02-21 20:52:00,26.0,26.0,-100.00,SW,222,0.0,3.0,100,0.00,,,0.00,0.000000,,2013-02-22 05:52:00,
2013-02-21 21:11:00,26.0,26.0,-100.00,WNW,283,3.0,6.0,100,0.00,,,0.00,0.000000,,2013-02-22 06:11:00,
2013-02-21 21:21:00,26.0,26.0,-100.00,WNW,283,3.0,6.0,100,0.00,,,0.00,0.000000,,2013-02-22 06:21:00,
2013-02-21 21:31:00,26.0,26.0,-100.00,WNW,283,3.0,6.0,100,0.00,,,0.00,0.000000,,2013-02-22 06:31:00,
2013-02-21 21:42:00,26.0,26.0,-100.00,WNW,283,3.0,6.0,100,0.00,,,0.00,0.000000,,2013-02-22 06:42:00,
2013-02-21 21:51:00,26.0,26.0,-100.00,WNW,283,3.0,6.0,100,0.00,,,0.00,0.000000,,2013-02-22 06:51:00,
2013-02-21 22:21:00,25.0,23.0,-100.00,SSW,212,1.0,6.0,93,0.00,,,0.00,0.000000,,2013-02-22 07:21:00,
2013-02-21 22:31:00,25.0,23.0,-100.00,SSW,212,1.0,6.0,93,0.00,,,0.00,0.000000,,2013-02-22 07:31:00,
2013-02-21 22:42:00,25.0,23.0,-100.00,SSW,212,1.0,6.0,93,0.00,,,0.00,0.000000,,2013-02-22 07:42:00,
2013-02-21 22:51:00,25.0,23.0,-100.00,SSW,212,1.0,6.0,93,0.00,,,0.00,0.000000,,2013-02-22 07:51:00,
2013-02-21 23:11:00,23.0,23.0,-100.00,SSW,201,6.0,12.0,100,0.00,,,0.00,0.000000,,2013-02-22 08:11:00,
2013-02-21 23:21:00,23.0,23.0,-100.00,SSW,201,6.0,12.0,100,0.00,,,0.00,0.000000,,2013-02-22 08:21:00,
2013-02-21 23:31:00,23.0,23.0,-100.00,SSW,201,6.0,12.0,100,0.00,,,0.00,0.000000,,2013-02-22 08:31:00,
2013-02-21 23:41:00,23.0,23.0,-100.00,SSW,201,6.0,12.0,100,0.00,,,0.00,0.000000,,2013-02-22 08:41:00,
2013-02-21 23:52:00,23.0,23.0,-100.00,SSW,201,6.0,12.0,100,0.00,,,0.00,0.000000,,2013-02-22 08:52:00,